Theta_e
321 321 321 321 320 320 320 320 319 319 319 319 319 318 318 318 318 318 318 318 318 318 319 320 323 325 325 313 315 321 348 348 330 325 323 322 323 321 315 317 318 316 317 320 321 320 331
321 321 321 321 320 320 320 319 319 319 319 318 318 318 318 318 318 318 318 317 317 317 319 320 323 325 319 308 318 329 334 330 326 323 323 324 323 322 318 317 316 317 318 320 322 326 331
321 321 321 321 320 320 320 320 319 318 318 318 317 317 317 317 318 318 317 316 316 317 319 320 324 326 316 313 320 323 327 324 325 325 323 324 324 322 321 317 318 317 316 319 319 325 327
322 321 321 321 321 320 320 319 319 318 317 317 317 317 318 317 317 317 316 315 317 319 321 323 325 324 313 319 322 320 324 321 324 324 324 325 325 322 320 320 317 315 317 312 316 323 327
322 322 322 322 322 321 320 320 319 318 317 317 317 317 317 317 316 316 315 315 319 323 323 325 325 318 311 325 318 322 324 321 322 323 323 322 323 320 319 314 312 315 309 310 312 319 317
323 323 322 322 322 321 320 320 320 319 317 317 317 317 316 316 316 315 314 316 324 324 325 325 323 315 318 314 320 321 324 324 320 319 318 319 319 316 315 312 306 309 308 309 310 314 315
323 323 322 322 321 321 320 320 319 319 318 317 317 317 316 316 315 313 316 324 318 317 318 313 313 314 317 321 322 319 323 321 321 318 312 316 313 310 311 311 311 311 309 308 313 315 315
323 323 322 322 321 321 320 320 319 318 317 317 317 316 316 315 314 313 317 318 314 317 313 316 315 314 317 319 314 317 323 316 314 311 313 311 307 313 313 312 310 311 309 309 312 316 314
322 322 321 321 320 320 320 319 318 318 317 316 316 316 315 314 314 313 318 319 321 322 314 312 316 315 318 319 315 314 319 316 313 310 310 308 310 312 311 310 309 311 309 309 309 313 317
320 320 321 320 320 319 319 319 318 317 316 316 316 316 314 312 307 320 316 322 324 324 310 309 312 316 318 320 313 319 320 317 313 310 310 310 313 311 310 309 311 308 312 310 310 310 307
320 320 320 320 319 319 319 318 318 317 316 315 315 314 313 310 321 321 323 327 326 322 299 309 312 322 320 317 316 314 320 317 312 310 311 309 309 309 309 311 313 310 313 313 313 310 310
320 320 321 320 319 318 318 318 317 316 315 315 314 313 312 314 320 324 326 323 321 308 299 308 314 313 314 316 315 316 315 319 318 313 314 313 316 314 314 315 314 315 313 313 313 310 304
321 321 320 320 319 318 318 318 317 316 314 313 311 311 312 320 322 327 326 319 309 305 312 308 310 314 313 312 313 314 313 312 311 308 308 312 312 315 316 312 315 313 310 303 302 303 303
321 321 319 319 318 317 318 318 316 315 314 312 309 309 314 322 329 323 320 314 305 308 309 312 313 313 310 313 313 313 313 311 315 313 310 307 304 312 314 313 311 312 310 303 297 301 304
321 320 320 319 318 317 318 317 316 314 313 311 308 323 325 329 325 325 317 310 309 310 312 310 313 309 309 311 311 312 312 311 313 315 309 310 307 313 314 315 314 310 308 312 305 306 304
320 320 320 319 318 317 318 317 315 314 312 310 326 327 325 325 327 323 315 305 313 315 314 312 309 311 308 310 309 310 310 313 313 314 317 313 307 314 313 314 312 312 313 306 307 299 298
320 320 319 318 318 318 318 317 315 313 311 311 327 319 326 328 324 319 313 313 314 317 316 311 310 310 311 310 312 310 310 316 317 317 316 315 312 311 314 312 311 311 309 309 309 307 301
319 319 319 318 317 318 318 317 314 312 310 309 328 315 326 327 315 318 318 314 307 315 317 315 316 314 312 312 311 311 310 316 318 319 312 315 312 308 310 315 316 315 312 311 305 305 307
319 319 319 319 317 318 318 316 313 311 310 324 323 320 327 323 311 314 316 314 316 315 315 315 314 317 318 313 309 312 314 318 317 318 317 317 311 306 308 312 315 312 314 313 313 312 308
318 318 319 318 318 318 318 316 313 311 311 321 324 313 320 324 323 317 315 313 313 316 315 317 316 318 316 314 317 313 313 316 316 317 318 319 313 310 305 309 313 310 312 314 312 308 308
318 318 319 318 319 319 318 316 313 311 311 321 322 316 316 313 317 318 316 315 312 312 316 317 315 314 314 311 312 312 314 314 316 314 316 316 310 312 313 313 313 312 311 312 311 312 308
317 317 318 318 319 318 317 317 314 312 310 323 318 318 321 320 317 315 310 314 311 312 313 312 313 312 314 311 311 309 311 312 311 315 314 315 309 311 310 312 312 310 312 312 312 313 312
317 317 318 318 318 318 318 317 315 312 314 320 321 323 319 308 315 315 316 314 312 314 314 315 314 313 312 313 315 317 317 316 315 313 312 312 309 307 304 308 309 306 311 312 313 315 314
317 317 317 318 318 318 318 318 316 314 312 320 318 320 315 310 315 314 313 313 313 314 313 315 316 314 317 321 320 319 317 316 315 314 315 310 310 308 305 307 299 310 319 318 315 316 318
316 316 316 317 318 318 318 318 317 315 312 318 318 318 316 313 313 312 311 311 314 315 314 314 316 319 321 317 312 310 310 308 309 312 313 313 310 305 302 302 305 307 313 315 315 314 322
315 314 314 315 317 318 317 318 318 315 313 320 316 318 318 312 311 313 311 311 311 312 312 313 318 321 318 314 311 305 303 305 304 308 313 311 314 308 306 299 297 311 315 320 319 310 323
315 314 314 314 316 317 318 318 318 316 314 316 317 317 317 312 316 314 312 312 314 312 311 313 315 315 317 310 307 305 305 308 302 303 307 309 309 305 305 302 306 315 318 322 307 313 325
314 314 314 314 314 315 318 318 317 316 315 314 317 317 313 313 314 314 314 313 314 313 309 313 311 313 312 308 308 310 306 309 307 310 308 307 306 305 307 303 301 318 318 313 320 324 324
315 314 314 314 313 314 316 318 317 315 313 313 317 318 316 312 315 316 317 318 317 316 313 314 312 312 315 312 313 314 308 311 308 303 313 305 310 308 309 310 316 318 319 324 322 319 320
Wind_Speed
15 14 14 14 13 13 13 13 13 13 13 12 12 12 12 12 12 12 12 12 12 12 13 13 14 13 8 8 2 4 1 5 12 10 8 5 5 3 4 5 7 5 10 10 9 3 8
15 15 15 15 15 14 14 14 14 13 13 12 12 12 12 12 12 12 12 12 13 13 13 12 12 14 7 9 5 4 4 9 8 11 7 6 2 4 5 4 6 11 12 9 3 3 4
15 15 15 15 16 15 15 15 14 14 13 13 12 12 12 12 13 13 13 13 13 13 12 10 9 7 7 4 2 2 4 3 9 7 6 2 2 7 5 6 7 9 11 7 3 1 2
15 16 16 16 16 16 16 16 15 15 13 12 13 12 11 12 13 13 13 14 15 13 10 8 6 6 5 4 1 6 6 5 6 4 3 2 2 5 6 7 7 7 7 6 5 3 4
15 15 16 16 16 16 16 16 16 16 14 13 11 11 11 10 11 12 13 15 14 6 4 5 7 6 3 5 8 7 8 5 9 7 4 2 4 5 8 9 10 7 7 8 5 2 7
16 16 17 17 17 17 16 16 16 16 16 13 11 10 9 9 8 10 12 13 2 8 6 5 4 7 6 6 8 9 5 7 5 9 8 8 7 11 9 10 6 4 8 8 9 3 8
16 17 17 18 18 18 18 17 17 16 15 13 12 10 8 7 6 8 10 5 7 7 7 5 3 3 7 5 7 9 8 8 6 10 12 9 11 13 9 3 7 9 11 11 12 7 8
17 17 18 18 18 19 19 18 18 17 15 15 13 10 8 5 4 3 7 6 5 7 4 7 7 6 4 3 9 10 9 10 8 11 5 8 13 11 1 5 8 9 11 9 7 2 7
19 18 19 19 21 20 20 20 19 18 15 14 12 9 6 3 1 5 8 7 2 4 6 6 4 4 3 8 6 15 15 10 9 8 11 13 6 3 6 8 10 13 9 8 11 11 6
19 20 19 21 22 22 21 21 20 18 16 14 11 8 4 5 3 5 6 4 6 4 8 7 8 6 7 6 7 8 13 9 7 8 5 8 5 7 9 8 7 14 4 8 10 10 8
19 21 20 19 22 23 23 22 21 19 17 14 12 6 4 12 3 5 7 3 6 5 7 6 7 6 5 7 14 9 10 9 5 5 7 7 7 9 10 9 6 10 5 11 10 13 5
20 21 19 21 22 23 24 23 22 20 19 15 10 6 6 6 5 4 3 5 6 9 6 8 7 11 12 8 7 10 11 9 3 8 10 11 3 7 11 8 8 10 14 16 12 9 9
17 19 21 20 21 25 24 24 23 22 21 17 11 8 10 2 3 0 4 6 8 5 4 9 9 12 14 10 8 11 13 14 9 9 9 8 14 9 9 14 14 11 16 9 5 8 2
17 18 21 21 22 24 25 25 24 23 23 18 5 14 9 5 2 3 6 7 3 2 5 4 7 11 10 11 8 10 12 11 11 9 8 6 10 13 10 8 11 6 10 8 5 4 4
17 18 20 22 22 25 25 25 25 24 22 10 6 5 4 3 7 5 8 8 5 4 2 7 12 13 9 10 4 9 9 6 4 8 6 2 4 7 8 5 7 8 8 8 10 7 9
17 18 19 21 22 25 25 26 26 26 22 5 4 4 4 4 7 7 8 4 3 3 1 4 7 5 10 12 9 8 7 3 1 3 11 3 7 3 9 4 4 9 6 7 5 4 5
17 18 19 22 23 24 25 26 26 26 24 3 6 5 6 4 5 7 2 6 2 4 2 3 3 7 5 7 3 3 4 6 4 0 5 8 7 4 5 12 3 7 9 7 8 6 9
16 17 19 22 24 25 26 26 26 25 24 4 5 3 5 4 6 2 1 3 1 3 2 2 3 6 3 2 2 3 2 5 4 4 2 2 8 9 13 6 5 10 12 9 7 6 2
16 17 18 19 24 24 25 27 27 25 18 5 1 3 4 4 4 4 4 4 5 5 6 2 3 5 2 3 2 2 2 4 4 4 6 3 7 9 14 13 10 8 8 11 9 7 8
15 17 18 19 22 23 25 27 28 27 19 5 4 4 5 2 1 4 2 3 4 6 7 4 4 1 2 1 1 0 2 3 2 4 3 3 13 11 13 16 8 7 8 10 14 11 9
15 16 17 18 20 22 25 27 31 30 23 5 4 5 5 3 4 2 2 1 2 2 3 4 3 3 2 3 4 5 3 5 6 5 5 7 13 15 13 14 13 13 17 17 13 16 15
14 15 16 17 18 22 24 26 29 34 32 4 4 4 2 2 0 3 2 3 2 3 4 3 0 1 2 4 4 8 4 4 5 2 6 6 10 9 16 16 14 16 16 17 17 17 12
14 14 15 16 17 20 22 23 25 29 24 6 4 1 6 2 1 5 3 2 2 3 3 3 4 6 4 4 6 9 9 10 11 9 10 9 8 8 16 15 9 15 18 19 19 17 13
12 14 15 15 16 16 18 21 22 23 19 5 5 5 5 3 2 4 1 2 2 4 5 3 4 5 7 8 10 11 13 11 10 11 11 9 7 8 9 5 13 2 6 6 9 12 7
8 13 15 15 15 14 15 17 18 19 21 5 5 5 4 1 3 3 1 3 4 3 7 6 2 4 6 8 9 7 7 6 5 4 4 9 8 6 6 10 10 9 5 6 7 3 2
6 10 13 13 13 13 15 13 16 16 18 6 6 5 4 5 5 2 3 2 6 4 6 4 3 5 5 6 6 7 5 3 5 7 3 4 9 8 4 9 8 9 5 4 3 7 5
7 7 10 11 11 12 13 12 14 16 15 7 4 8 5 4 3 3 3 4 2 3 5 2 2 5 5 6 8 8 7 1 6 6 6 8 7 12 9 9 1 6 5 2 10 6 4
7 6 8 9 9 10 12 11 11 14 15 9 3 6 6 4 4 3 2 5 4 4 6 6 7 7 5 6 4 3 6 4 5 2 4 6 6 6 6 8 11 6 3 7 6 4 4
7 7 7 8 8 9 10 9 7 10 13 12 2 2 4 5 6 4 9 11 11 9 8 3 6 3 5 4 3 2 5 4 5 5 4 6 4 7 5 7 4 4 5 2 3 2 3
Wind_Direction
13 11 8 4 1 357 354 353 349 346 343 341 338 337 336 333 330 326 324 322 319 316 316 318 315 318 283 225 250 46 240 130 180 207 228 242 257 269 288 342 324 262 337 318 334 275 239
10 8 5 1 359 357 354 353 349 345 341 338 335 333 332 330 327 324 322 319 315 312 310 313 311 308 257 241 92 47 103 154 183 198 198 235 333 349 284 318 322 329 307 309 341 17 223
7 6 2 360 356 355 353 350 347 345 340 336 333 330 328 326 323 321 319 316 311 305 302 300 302 289 254 266 96 30 182 218 177 208 194 168 291 261 340 296 346 306 304 293 29 26 282
0 359 356 353 350 349 349 346 343 343 339 333 330 327 324 323 320 320 317 313 303 295 284 275 270 257 266 119 279 237 176 145 187 198 283 113 278 290 297 307 257 299 274 306 65 269 107
356 353 350 348 346 343 342 339 336 341 338 334 327 324 322 320 318 316 314 311 300 273 224 212 230 260 162 140 203 156 195 160 154 163 122 154 244 281 253 270 268 206 310 325 345 272 310
354 350 347 346 343 339 337 335 333 335 336 331 324 312 309 308 313 315 308 297 98 180 199 225 262 243 201 147 131 149 169 175 161 159 168 210 226 237 226 246 264 353 307 311 315 357 278
351 348 345 344 341 336 333 332 330 331 332 325 316 309 302 299 300 315 295 195 201 179 216 306 73 343 107 105 165 180 172 171 171 203 213 201 231 222 244 40 300 294 295 297 303 14 302
349 346 343 341 339 334 331 331 329 329 332 325 315 310 299 290 283 294 269 246 7 358 191 226 258 274 231 310 165 163 190 205 207 214 206 204 230 242 230 253 264 265 280 293 306 107 296
350 347 343 343 341 336 332 330 328 329 332 324 316 309 302 279 234 226 233 243 320 315 254 147 193 239 192 209 208 169 198 203 213 210 216 252 73 67 208 223 246 249 263 315 336 320 223
349 347 344 344 341 337 333 330 329 330 334 324 316 304 279 128 226 149 215 187 230 281 233 125 174 148 178 234 162 143 209 198 200 243 208 248 199 234 236 240 254 282 58 296 308 307 338
348 344 344 341 341 339 334 330 330 333 335 326 322 307 243 223 8 215 74 253 221 231 192 143 140 106 164 234 128 169 190 211 220 163 236 106 190 215 234 243 298 288 301 302 293 289 287
345 343 343 343 340 339 334 331 332 334 336 329 315 277 181 182 226 284 303 161 195 228 107 141 137 178 180 190 152 139 186 231 318 251 232 271 240 267 253 274 243 283 273 257 245 265 243
341 343 345 343 340 340 335 333 334 337 339 334 316 204 200 227 61 8 216 211 216 270 166 148 172 177 192 165 150 179 188 202 228 218 205 199 220 224 243 248 234 239 260 273 243 192 49
341 340 347 345 342 341 335 335 336 340 345 344 34 148 200 275 297 272 208 230 226 105 95 117 167 169 184 159 165 175 189 219 215 269 283 292 158 196 169 259 310 262 312 303 293 263 39
341 341 345 347 344 342 336 337 338 341 347 350 173 191 189 163 209 259 245 234 64 59 55 156 154 165 164 179 252 200 220 254 336 208 268 233 193 144 201 268 261 132 232 2 288 202 249
342 342 345 348 347 342 339 339 340 341 345 325 252 211 98 103 175 232 253 61 89 7 305 217 164 252 161 173 207 212 171 81 251 276 274 349 271 196 126 201 199 270 3 238 196 273 282
343 343 343 350 348 342 342 341 343 342 343 317 241 210 96 174 241 231 274 64 61 59 304 280 162 151 118 145 253 176 136 101 8 287 263 276 255 155 206 209 293 175 223 223 299 305 312
343 344 344 351 351 344 344 343 344 344 340 253 283 198 128 250 223 256 136 17 253 42 89 120 41 67 74 77 150 166 158 34 18 333 272 222 290 266 273 93 293 274 287 275 255 187 212
343 345 345 348 353 345 346 343 344 347 349 308 284 99 157 262 223 174 126 119 33 39 49 37 91 29 55 71 241 281 130 105 25 7 6 30 253 273 249 175 187 230 210 263 280 296 262
343 344 346 347 352 349 348 345 345 347 348 270 260 171 152 182 348 304 171 105 124 53 66 54 77 126 165 181 76 47 191 134 353 343 20 245 268 270 285 318 334 285 233 232 270 282 291
343 344 345 347 346 350 351 350 347 349 348 276 343 60 5 158 118 34 283 324 163 110 64 23 97 57 7 262 253 256 273 269 206 123 230 277 273 274 273 272 275 277 275 272 249 273 281
344 344 345 348 351 356 355 353 354 349 336 58 359 326 162 70 225 246 156 69 337 97 335 108 19 93 309 286 325 312 306 275 294 196 256 277 275 276 270 267 261 267 261 258 256 252 257
345 344 345 349 354 359 359 357 360 359 342 39 27 120 286 143 210 250 63 37 51 333 117 43 347 291 252 24 331 310 295 287 281 281 286 278 278 267 267 269 280 267 251 247 254 249 247
348 347 346 349 354 359 1 1 1 4 0 356 20 289 291 98 282 32 312 332 289 344 308 336 311 284 45 312 284 253 254 261 268 259 245 255 250 260 278 283 248 339 16 337 286 280 271
353 348 345 346 353 355 1 2 2 2 359 15 8 328 342 36 351 151 182 301 277 233 252 277 267 354 312 283 277 266 201 210 193 199 228 227 242 264 255 242 271 223 76 344 334 203 76
336 351 338 341 349 348 359 360 1 2 359 317 36 322 314 308 82 4 320 324 299 284 236 223 150 310 273 267 244 249 255 7 205 172 235 209 231 251 220 280 271 67 50 347 303 233 72
310 352 333 333 342 343 343 358 1 0 360 325 40 1 286 306 85 282 315 341 311 272 276 232 319 227 226 245 250 253 252 357 243 245 174 198 219 233 235 255 298 48 2 305 240 56 39
292 322 323 324 335 333 337 353 360 359 358 336 45 12 335 311 294 236 235 251 237 249 283 60 251 190 238 246 271 189 260 152 258 319 268 255 249 218 241 268 246 28 224 307 45 78 12
288 297 307 312 323 324 331 340 3 359 354 333 311 21 326 259 340 312 288 287 275 286 294 219 341 312 352 274 227 306 224 205 320 257 176 251 298 335 297 36 73 352 326 34 340 3 11